SCP
0 0 0 0 0 0 0 0 0 0 0 0 0 0 0 0 0 0 0 0 0 0 0 0 0 0 0 0 0 0 0 0 0 0 0 0 0 0 0 0 0 0 0 0 0 0 0 0 0 0 0 0 0 0
0 0 0 0 0 0 0 0 0 0 0 0 0 0 0 0 0 0 0 0 0 0 0 0 0 0 0 0 0 0 0 0 0 0 0 0 0 0 0 0 0 0 0 0 0 0 0 0 0 0 0 0 0 0
0 0 0 0 0 0 0 0 0 0 0 0 0 0 0 0 0 0 0 0 0 0 0 0 0 0 0 0 0 0 0 0 0 0 0 0 0 0 0 0 0 -0 0 -0 0 0 0 0 -0 -0 -0 -0 -0 -0
0 0 0 0 0 0 0 0 0 0 0 0 0 0 0 0 0 0 0 0 0 0 0 0 0 0 0 0 0 0 0 0 0 0 0 0 0 0 0 0 0 -0 -0 -0 -0 -0 -0 -0 -0 -0 -0 -0 -0 -0
0 0 0 0 0 0 0 0 0 0 0 0 0 0 0 0 0 0 0 0 0 0 0 0 0 0 0 0 0 0 0 0 0 0 0 0 0 0 0 0 0 0 -0 -0 -0 -0 -0 -0 -0 -0 -0 -0 -0 -0
0 0 0 0 0 0 0 0 0 0 0 0 0 0 0 0 0 0 0 0 0 0 0 0 0 0 0 0 0 0 0 0 0 0 0 0 0 0 0 0 0 0 0 0 0 0 -0 -0 -0 -0 -0 -0 -0 -0
0 0 0 0 0 0 0 0 0 -0 0 0 0 0 0 0 0 0 0 0 0 0 0 0 0 0 0 0 0 0 0 0 0 0 0 0 0 0 0 0 0 0 0 0 0 0 0 0 -0 0 -0 -0 0 -0
0 0 0 0 0 0 0 -0 -0 -0 0 0 0 0 0 0 0 0 0 0 0 0 0 0 0 0 0 0 0 0 0 0 0 0 0 0 0 0 0 0 0 0 0 0 0 0 0 0 0 0 -0 -0 0 0
0 0 0 0 0 0 -0 -0 0 0 0 0 0 0 0 0 0 0 0 0 0 0 0 0 0 0 0 0 0 0 0 0 0 0 0 0 0 0 0 0 0 0 0 0 0 -0 -0 -0 -0 0 -0 -0 -0 0
0 0 0 0 0 0 -0 0 0 0 0 0 0 0 0 0 0 0 0 0 0 0 0 0 0 0 0 0 0 0 0 0 0 0 0 0 0 0 0 0 0 0 0 0 0 -0 -0 -0 -0 -0 -0 -0 -0 0
0 0 0 0 0 0 0 0 0 0 0 0 0 0 0 0 0 0 0 0 0 0 0 0 0 0 0 0 0 0 0 0 0 0 0 0 0 0 0 0 0 0 0 0 0 -0 -0 -0 0 -0 0 -0 -0 -0
0 0 0 0 0 0 0 0 0 0 0 0 0 0 0 -0 -0 0 0 0 0 0 0 0 0 0 0 0 0 0 0 0 0 0 0 0 0 0 0 0 0 0 0 0 -0 -0 -0 -0 0 0 0 0 0 0
0 0 0 0 0 0 -0 0 0 0 0 0 0 0 0 0 0 0 0 0 0 0 0 0 0 0 0 0 0 0 0 0 0 0 0 0 0 0 0 0 0 0 -0 -0 -0 -0 -0 -0 -0 -0 -0 0 0 -0
0 0 0 0 0 0 -0 0 0 0 0 0 0 0 0 0 0 0 0 0 0 0 0 0 0 0 0 0 0 0 0 0 0 0 0 0 0 0 0 0 -0 -0 -0 -0 -0 -0 -0 -0 -0 -0 0 -0 -0 -0
0 0 0 0 0 -0 -0 0 0 0 0 0 0 0 0 0 0 0 0 0 0 0 0 0 0 0 0 0 0 0 0 0 0 0 0 0 0 0 -0 -0 -0 -0 -0 -0 -0 -0 -0 -0 -0 -0 0 0 -0 0
0 0 0 0 -0 0 0 0 0 0 0 0 0 0 0 0 0 0 0 0 0 0 0 0 0 0 0 0 0 0 0 0 0 0 0 0 0 -0 -0 -0 -0 -0 -0 -0 -0 -0 -0 -0 -0 -0 -0 -0 0 0
0 0 0 0 0 0 0 0 0 0 0 0 0 0 0 0 0 0 0 0 0 0 0 0 0 0 0 0 0 0 0 0 0 0 0 0 -0 -0 -0 -0 -0 -0 -0 -0 -0 -0 -0 0 -0 -0 0 -0 -0 -0
0 0 0 0 0 0 0 0 0 0 0 0 0 0 0 0 0 0 0 0 0 0 0 0 0 0 0 0 0 0 0 0 0 0 0 -0 -0 -0 -0 -0 -0 0 -0 -0 -0 -0 0 0 0 0 -0 -0 0 0
0 -0 0 0 0 0 0 0 0 0 0 0 0 0 0 0 0 0 0 0 0 0 0 0 0 0 0 0 0 0 0 0 -0 -0 -0 -0 -0 -0 -0 0 0 0 0 -0 -0 0 0 0 0 0 0 0 -0 -0
0 0 0 0 0 0 0 0 0 0 0 0 0 0 0 0 0 0 0 0 0 0 0 0 0 0 0 0 0 0 0 0 -0 -0 -0 -0 -0 0 0 0 0 -0 -0 -0 -0 -0 0 0 0 0 0 0 -0 -0
0 0 0 0 0 0 0 0 0 0 0 0 0 0 0 0 0 0 0 0 0 0 0 0 0 0 0 0 0 0 0 -0 -0 -0 -0 -0 -0 -0 -0 -0 0 0 0 -0 -0 -0 -0 0 0 0 0 0 0 0
0 0 0 0 0 0 0 0 0 0 0 0 0 0 0 0 0 0 0 0 0 0 0 0 0 0 0 0 -0 -0 -0 -0 -0 -0 -0 -0 0 -0 -0 0 0 0 0 -0 -0 -0 -0 -0 -0 0 0 0 0 0
0 0 0 0 0 0 0 0 0 0 0 0 0 0 0 0 0 0 0 0 0 0 0 0 0 -0 -0 -0 0 -0 -0 0 0 0 0 -0 0 0 0 0 0 0 0 -0 -0 -0 -0 -0 -0 -0 -0 -0 -0 -0
0 0 0 0 0 0 0 0 0 0 0 0 0 0 0 0 0 0 0 0 0 0 0 0 0 0 -0 -0 -0 0 0 0 0 0 0 0 0 0 0 0 0 0 0 -0 -0 -0 -0 -0 -0 -0 -0 -0 -0 -0
-0 0 0 0 0 0 0 0 0 0 0 0 0 0 0 0 0 0 0 0 0 0 0 -0 -0 -0 0 0 -0 -0 0 0 0 0 0 0 0 0 0 0 0 0 0 -0 -0 -0 -0 -0 -0 -0 -0 -0 -0 -0
-0 0 0 0 0 0 0 0 0 0 0 0 0 0 0 0 0 0 0 0 0 -0 -0 0 0 0 0 0 0 0 0 0 0 0 0 0 0 0 0 0 0 0 0 0 0 0 0 0 0 0 0 0 0 0
-0 0 0 0 0 0 0 0 0 0 0 0 0 0 0 0 0 -0 0 0 -0 0 0 -0 -0 0 0 0 0 0 0 0 0 0 0 0 0 -0 -0 0 0 0 0 0 0 0 0 0 0 0 0 0 0 0
-0 0 -0 0 0 0 0 0 0 0 0 0 0 0 0 -0 -0 -0 0 0 -0 0 0 0 0 0 0 0 0 0 0 0 0 -0 -0 -0 -0 -0 -0 -0 -0 0 0 0 0 0 0 0 0 0 0 0 0 0
-0 0 0 0 0 0 0 0 0 0 0 0 0 -0 -0 0 0 0 0 -0 0 0 0 0 0 0 0 0 0 0 0 -0 -0 -0 -0 -0 -0 -0 0 -0 -0 0 0 0 0 0 0 0 0 0 0 0 0 0
0 0 0 0 0 0 0 0 0 0 0 0 -0 -0 0 0 -0 0 0 0 0 0 0 0 -0 -0 -0 -0 0 -0 -0 -0 -0 -0 -0 -0 0 0 0 0 0 0 0 0 0 0 0 0 0 0 0 0 0 0
-0 -0 -0 -0 0 0 0 0 0 0 0 0 0 0 0 0 0 0 0 0 0 0 0 0 0 0 0 -0 0 0 0 0 0 0 0 0 0 0 0 0 0 0 0 0 0 0 0 0 0 0 0 0 0 0
-0 -0 -0 -0 0 0 -0 -0 -0 -0 -0 -0 -0 -0 -0 -0 -0 0 0 0 0 0 0 0 0 0 0 0 0 0 0 0 0 0 0 0 0 0 0 0 0 0 0 0 0 0 0 0 0 0 0 0 0 0
0 0 0 0 0 0 0 -0 -0 0 0 -0 0 -0 -0 -0 -0 -0 0 0 0 0 0 0 0 0 0 0 0 0 0 0 0 0 0 0 0 0 0 0 0 0 0 0 0 0 0 0 0 0 0 0 0 0
Wind_Speed_500mb
51 55 58 55 52 51 50 49 44 45 44 43 46 45 39 44 48 41 54 50 53 39 59 46 56 45 33 33 18 34 25 12 11 20 23 24 17 12 16 27 36 45 24 24 26 35 40 26 14 20 27 61 45 43
55 57 58 62 54 52 50 48 46 46 47 47 51 50 50 43 47 45 57 52 54 62 37 18 40 49 42 55 50 21 15 19 11 9 13 9 17 14 19 12 10 4 9 8 10 11 30 21 25 69 64 32 31 50
63 58 55 61 58 55 53 51 52 51 50 54 56 49 51 51 47 47 57 55 49 54 65 66 62 86 74 70 64 27 29 36 23 39 8 6 11 5 14 12 25 23 46 28 24 14 47 81 73 46 42 39 48 54
61 62 59 56 62 63 62 61 56 57 57 54 56 50 50 53 54 54 55 57 53 34 11 20 39 42 51 46 44 63 72 60 52 45 11 7 7 15 15 21 27 26 39 35 48 39 56 58 55 65 73 67 67 69
59 62 55 59 58 62 65 64 65 60 59 60 55 52 53 55 59 58 58 60 59 58 12 22 30 32 32 43 58 59 60 62 48 17 8 11 11 16 15 22 24 25 33 29 37 47 44 58 75 75 71 68 66 71
59 61 52 55 57 55 58 57 60 60 57 56 49 53 57 60 58 51 41 60 62 73 31 10 19 50 46 51 67 76 67 67 49 19 8 20 48 23 11 21 31 57 70 72 37 54 57 61 67 58 68 83 82 60
55 58 59 56 55 54 54 56 59 61 60 54 51 55 59 59 50 55 17 8 6 37 23 9 7 17 47 60 58 51 49 44 43 40 17 26 40 45 24 31 44 68 49 45 31 49 42 38 39 86 72 69 80 97
58 59 59 59 55 54 55 60 61 57 50 45 50 53 57 48 50 58 70 60 50 32 20 7 7 3 19 17 12 38 28 37 27 28 17 12 26 16 19 40 28 23 36 26 37 35 43 70 68 81 78 65 82 90
54 58 57 56 55 54 54 55 46 40 40 43 43 43 43 46 45 67 53 41 45 47 7 9 8 9 11 5 7 10 20 4 17 7 13 11 6 10 8 6 15 23 25 41 57 55 46 50 78 88 75 74 66 84
53 57 56 51 52 50 53 47 41 40 38 36 34 15 13 22 40 25 17 15 17 15 11 3 5 3 8 20 7 5 14 6 5 9 13 8 21 16 13 10 14 27 29 34 49 49 64 73 66 89 87 81 73 81
51 53 52 52 53 52 53 46 39 34 26 19 9 11 11 12 21 18 13 11 13 5 13 17 27 10 20 7 9 15 6 6 7 10 10 7 8 7 11 12 28 38 43 45 44 52 57 66 77 86 99 81 82 82
51 51 49 52 53 51 50 46 37 34 22 16 11 9 9 12 15 9 8 4 5 11 9 6 5 12 7 14 5 9 7 3 10 5 7 6 1 13 21 47 54 53 62 68 58 70 72 66 72 81 90 96 90 92
47 49 51 51 50 50 51 50 38 33 30 19 10 9 11 10 8 6 9 5 4 5 9 6 3 10 11 13 5 5 8 8 2 4 9 6 11 23 52 62 69 70 68 72 78 74 77 78 72 73 85 84 88 89
52 53 52 49 49 47 47 42 41 36 18 15 14 7 7 6 7 7 5 5 1 5 8 5 5 5 8 4 6 7 9 4 4 5 16 4 21 50 59 62 71 80 77 77 77 76 74 74 79 76 78 78 79 80
49 48 45 45 43 49 46 41 42 36 19 11 9 8 9 4 9 8 6 6 8 8 6 5 7 5 4 7 6 5 5 9 12 11 4 20 50 58 62 64 67 74 76 74 75 75 76 76 75 76 75 74 60 60
27 30 40 38 31 38 45 52 46 28 13 10 8 5 3 4 1 7 10 8 9 6 5 5 6 6 9 6 8 13 6 12 3 3 26 46 53 59 64 70 72 72 72 76 74 76 75 75 74 72 69 55 50 52
18 33 30 35 35 44 58 44 21 11 11 9 3 3 9 11 7 5 4 4 10 5 2 3 8 13 4 6 7 6 5 3 12 35 40 48 57 68 69 71 74 74 75 74 73 71 72 67 61 60 59 53 41 36
30 31 36 38 65 56 38 14 12 10 6 7 3 5 9 9 9 6 4 7 3 2 4 2 6 6 6 6 2 3 9 32 32 36 52 60 59 59 62 67 67 67 69 66 60 65 58 58 55 54 51 42 33 27
27 13 31 37 47 27 10 8 8 7 9 10 14 11 9 11 10 5 2 2 3 3 1 3 4 3 1 1 2 20 28 29 43 49 57 53 52 57 60 57 60 59 55 49 55 53 53 43 42 41 39 36 36 34
38 39 34 26 35 12 9 9 9 14 6 7 11 11 10 7 7 12 13 8 6 4 5 4 3 2 4 17 27 33 36 38 42 43 53 58 55 57 52 56 57 49 43 46 47 44 49 46 42 37 36 35 39 40
22 28 25 24 16 14 12 9 12 10 13 13 16 5 8 7 5 5 7 10 8 6 3 1 4 12 19 21 17 22 27 30 37 37 45 54 52 45 49 53 46 40 42 46 49 45 45 46 39 38 38 37 35 38
12 20 17 13 10 9 14 14 13 9 9 15 9 7 7 2 2 4 7 10 5 1 2 6 14 20 18 15 16 19 24 26 22 25 26 28 37 43 48 52 48 48 47 48 47 43 40 38 36 37 40 43 43 45
22 15 10 9 9 13 7 9 7 7 6 4 10 5 3 3 2 5 4 2 2 4 9 10 11 9 11 14 15 18 19 19 25 28 26 24 24 31 40 50 51 52 54 53 48 46 45 42 44 46 46 50 54 57
18 10 14 13 18 5 6 11 8 6 6 4 4 4 2 1 1 0 2 4 3 6 5 6 7 8 9 13 17 21 23 24 30 33 33 32 34 37 42 50 55 55 54 53 54 54 52 52 50 51 52 53 55 56
8 20 14 11 14 8 9 7 8 6 5 5 3 4 1 4 1 1 3 4 4 2 1 4 6 7 8 10 11 14 18 21 26 32 34 35 33 35 40 44 50 53 53 57 61 57 54 52 51 50 50 50 49 47
15 15 10 6 8 7 5 5 5 2 4 3 3 3 3 0 1 6 5 11 10 8 7 8 9 9 11 11 11 11 12 12 14 18 25 32 37 38 38 41 43 44 47 48 48 48 46 45 44 44 44 44 43 41
9 6 10 11 6 6 8 6 2 3 3 2 3 5 1 1 6 5 7 13 12 12 10 9 9 10 10 11 13 15 17 17 16 14 16 19 23 31 32 34 36 36 35 33 32 33 34 35 36 36 35 34 34 35
8 6 6 6 8 6 6 3 3 3 3 1 3 1 5 10 6 5 10 15 15 14 12 8 4 3 6 10 13 14 14 18 13 13 11 12 14 21 23 25 26 27 27 28 27 25 24 23 22 22 21 22 23 22
9 5 3 6 4 4 3 6 6 3 2 5 5 4 5 7 7 6 12 18 18 17 14 8 4 3 7 13 15 16 14 13 15 13 12 15 18 22 23 24 24 24 24 23 24 26 25 23 21 19 18 17 16 15
6 6 5 3 5 2 4 5 4 4 6 9 7 8 9 10 7 11 16 21 22 20 16 14 11 9 10 14 13 13 13 12 16 18 20 21 23 23 25 26 27 28 28 27 25 23 23 22 22 22 21 20 20 19
5 2 2 2 5 5 3 8 11 11 9 8 14 11 11 11 9 14 21 21 23 25 24 20 17 15 13 11 13 14 14 14 16 16 16 18 20 23 26 28 32 34 35 35 34 32 29 27 26 25 24 24 24 24
4 3 4 2 4 2 4 8 3 4 5 5 5 7 6 7 8 5 7 22 32 31 25 23 23 15 16 18 16 16 17 19 21 24 26 28 29 30 33 35 37 41 42 41 40 39 37 35 33 33 33 32 32 32
2 1 2 3 2 2 7 13 4 6 5 4 4 4 4 6 9 4 4 5 9 13 17 20 21 23 24 23 23 24 27 29 30 30 31 33 37 39 43 44 44 45 45 42 39 37 37 37 38 38 38 39 39 38
Wind_Direction_500mb
281 277 274 276 273 268 266 271 273 275 279 281 273 271 268 272 273 267 265 263 255 257 268 253 256 266 265 267 279 289 322 281 270 252 259 279 290 282 296 297 263 248 233 229 234 238 248 356 316 263 332 325 353 4
281 280 275 266 273 271 269 269 272 275 279 282 279 271 267 266 271 269 267 267 263 254 255 241 251 241 265 255 262 258 242 295 282 311 313 339 314 304 307 280 359 303 6 307 312 332 318 292 307 304 301 312 338 323
285 276 279 266 271 274 273 272 272 277 278 279 276 273 269 266 264 267 268 268 266 262 268 256 257 270 266 249 254 238 254 256 247 261 292 299 276 23 288 284 316 304 297 286 306 325 307 296 305 325 330 334 330 325
280 280 275 270 271 273 273 273 275 276 277 277 274 271 272 272 268 262 263 266 258 259 271 271 272 252 269 267 253 237 244 260 261 266 260 257 257 226 266 282 283 285 312 302 297 290 304 297 312 309 308 308 314 311
278 281 274 267 271 269 267 269 272 274 274 271 268 272 274 272 272 262 259 264 259 242 278 285 285 261 250 260 248 236 245 247 246 252 226 245 254 269 259 270 272 272 275 285 286 294 295 302 316 316 316 318 311 311
277 277 272 273 276 271 270 267 267 270 274 273 274 275 275 271 268 257 255 264 261 247 250 264 268 251 254 249 243 246 246 242 238 232 233 235 240 249 258 259 265 274 276 280 301 318 311 302 304 306 315 310 310 303
270 273 276 269 269 273 270 271 271 269 269 266 273 276 275 270 251 234 219 221 239 234 230 228 229 249 249 246 244 246 242 233 230 237 231 242 255 257 262 270 275 280 301 312 341 338 318 320 311 308 312 305 304 303
266 273 270 269 267 271 276 273 274 264 259 266 273 275 274 263 254 244 242 245 250 247 243 255 258 235 214 196 207 223 214 221 224 222 234 241 263 252 264 267 299 349 331 321 339 332 303 302 308 307 312 316 315 311
262 269 268 269 269 270 274 281 262 253 259 267 273 281 278 260 239 240 246 249 240 231 241 208 190 253 192 243 260 241 230 225 229 199 235 241 232 238 213 305 342 352 342 314 316 317 317 306 309 309 311 312 310 304
264 268 266 266 264 265 272 273 264 253 256 268 273 271 246 236 237 220 203 200 206 223 256 297 90 234 174 221 206 209 202 209 219 233 243 195 243 257 89 58 344 332 328 327 326 325 321 312 310 306 306 306 303 299
265 265 264 265 265 260 265 267 254 248 246 250 225 233 300 191 177 185 185 177 188 223 218 228 220 220 220 181 207 213 202 217 202 243 165 245 254 109 68 2 333 324 320 315 306 296 297 294 299 302 303 303 301 299
264 264 264 263 264 257 260 251 239 222 223 223 224 258 221 210 207 217 189 104 179 213 217 172 210 199 220 208 141 216 194 196 238 211 107 251 111 66 351 337 332 327 323 321 316 308 308 301 299 297 297 299 299 300
265 264 261 261 256 256 251 242 216 214 218 222 214 208 196 211 231 235 182 216 227 203 222 197 251 196 185 205 224 226 230 234 65 92 221 236 82 356 341 336 330 328 324 318 317 315 311 305 302 298 297 297 297 297
263 260 258 256 255 250 238 227 206 202 182 184 190 242 216 207 219 199 168 149 87 1 23 331 260 208 233 207 249 233 237 49 284 227 244 61 359 334 333 331 328 325 324 319 317 315 309 307 306 305 302 302 303 303
260 251 247 247 256 247 225 201 194 187 176 181 173 221 215 229 68 67 67 103 29 24 1 301 278 238 243 245 212 236 252 230 206 238 35 340 328 328 324 325 322 322 321 316 316 312 311 311 311 309 312 313 317 313
244 244 236 249 264 232 195 175 168 166 161 160 203 244 102 42 144 83 45 81 6 340 295 250 267 226 230 218 226 215 203 218 273 339 319 321 321 321 321 325 324 323 318 317 317 316 315 317 315 314 320 325 324 320
241 251 258 264 228 196 176 154 149 152 173 165 150 106 92 79 84 92 60 347 335 340 248 298 237 229 344 234 227 35 214 238 322 315 318 319 318 324 330 330 328 326 324 322 322 327 322 322 330 333 332 340 339 336
255 276 270 240 171 140 128 124 139 137 127 74 125 89 97 108 108 76 56 337 46 34 340 285 318 248 250 249 331 339 342 316 317 313 317 323 330 332 331 330 330 332 324 327 337 331 332 342 342 342 347 354 358 10
263 285 130 135 148 121 101 123 137 101 79 100 107 105 102 90 76 76 94 27 91 160 304 300 245 245 287 39 295 323 321 320 315 318 321 331 334 334 336 338 338 328 334 343 342 343 351 355 353 358 6 18 26 34
152 139 136 148 150 104 98 69 93 96 98 115 105 100 102 99 103 60 50 71 84 67 52 47 82 57 317 303 312 307 312 320 322 320 322 335 344 342 348 347 333 341 350 356 353 3 3 8 16 20 29 40 50 50
129 126 133 152 105 75 90 86 67 83 113 95 115 90 93 94 72 57 34 53 65 37 85 138 275 315 311 316 320 318 324 327 317 313 310 315 340 350 355 347 358 7 9 0 3 11 17 16 23 36 45 53 63 72
129 140 116 96 79 74 77 60 88 93 82 121 106 98 96 60 76 26 59 54 65 76 319 312 329 331 345 355 355 349 334 333 341 340 336 344 355 6 4 2 16 20 25 21 16 22 29 34 41 53 62 68 74 79
133 127 88 71 88 54 27 78 80 47 101 142 148 79 34 70 57 82 87 88 167 329 328 335 350 3 18 27 23 18 14 25 29 22 23 27 30 35 32 31 32 32 37 39 40 43 47 53 61 66 72 78 82 85
112 63 40 45 40 58 40 34 49 63 56 68 78 93 25 64 167 247 121 190 234 318 344 5 34 69 64 47 42 41 43 50 54 48 46 47 49 49 50 45 43 45 47 49 51 52 55 59 63 68 73 77 80 82
96 12 23 23 25 40 46 24 356 49 74 4 94 132 11 326 157 29 223 216 209 254 47 92 78 67 60 58 52 43 36 38 43 41 39 40 43 50 53 50 46 42 45 50 48 49 51 54 58 62 66 70 73 75
69 9 48 359 9 72 359 76 41 58 2 76 52 355 323 286 105 243 226 186 189 185 152 128 113 94 60 42 31 21 9 3 6 14 17 23 27 27 25 27 32 36 38 38 43 43 46 49 53 57 62 64 66 68
76 357 36 44 81 97 67 58 65 69 69 105 331 337 311 204 244 250 189 183 178 163 147 130 111 89 65 46 32 21 14 3 354 341 344 356 5 12 15 16 18 19 22 21 24 31 34 36 40 43 46 49 53 55
92 53 102 359 62 57 119 61 85 162 224 166 41 252 195 198 239 195 198 184 179 172 167 156 123 44 15 5 358 355 357 0 352 357 359 3 6 10 13 11 8 7 4 5 9 11 13 15 16 20 24 31 35 38
56 54 84 27 42 59 143 154 204 177 204 190 154 259 262 252 256 231 203 192 192 198 198 199 213 296 343 341 342 347 346 356 10 15 17 16 12 6 5 2 3 3 5 5 1 1 1 2 2 358 356 355 354 352
23 20 86 63 95 257 209 197 208 216 231 225 254 273 269 267 273 225 211 209 212 213 219 231 245 273 313 333 346 348 351 350 355 356 357 359 359 1 1 3 4 3 359 357 356 354 350 349 347 348 347 347 346 343
360 7 66 188 201 185 219 272 274 249 242 242 239 246 268 295 284 240 228 222 223 229 234 239 246 262 283 307 325 338 346 342 340 339 338 338 339 341 342 344 344 347 348 347 345 343 342 338 335 334 331 332 331 329
14 44 127 47 285 250 308 342 267 257 238 246 242 249 278 282 274 242 235 225 229 236 239 241 247 260 272 282 290 306 318 325 326 322 321 323 326 328 328 330 330 330 332 333 333 332 329 327 327 327 326 325 322 319
331 14 34 340 13 7 346 343 4 335 245 261 249 269 263 267 250 263 296 287 262 249 242 243 250 254 266 281 286 290 298 304 307 309 311 314 317 317 315 316 316 317 319 322 325 326 327 325 325 323 319 316 313 311
Wind_Speed_850mb
51 55 58 55 52 51 50 49 44 45 44 43 46 45 39 44 48 41 54 50 53 39 59 46 56 45 33 33 18 34 25 12 11 20 23 24 17 12 16 27 36 45 24 24 26 35 40 26 14 20 27 61 45 43
55 57 58 62 54 52 50 48 46 46 47 47 51 50 50 43 47 45 57 52 54 62 37 18 40 49 42 55 50 21 15 19 11 9 13 9 17 14 19 12 10 4 9 8 10 11 30 21 25 69 64 32 31 50
63 58 55 61 58 55 53 51 52 51 50 54 56 49 51 51 47 47 57 55 49 54 65 66 62 86 74 70 64 27 29 36 23 39 8 6 11 5 14 12 25 23 46 28 24 14 47 81 73 46 42 39 48 54
61 62 59 56 62 63 62 61 56 57 57 54 56 50 50 53 54 54 55 57 53 34 11 20 39 42 51 46 44 63 72 60 52 45 11 7 7 15 15 21 27 26 39 35 48 39 56 58 55 65 73 67 67 69
59 62 55 59 58 62 65 64 65 60 59 60 55 52 53 55 59 58 58 60 59 58 12 22 30 32 32 43 58 59 60 62 48 17 8 11 11 16 15 22 24 25 33 29 37 47 44 58 75 75 71 68 66 71
59 61 52 55 57 55 58 57 60 60 57 56 49 53 57 60 58 51 41 60 62 73 31 10 19 50 46 51 67 76 67 67 49 19 8 20 48 23 11 21 31 57 70 72 37 54 57 61 67 58 68 83 82 60
55 58 59 56 55 54 54 56 59 61 60 54 51 55 59 59 50 55 17 8 6 37 23 9 7 17 47 60 58 51 49 44 43 40 17 26 40 45 24 31 44 68 49 45 31 49 42 38 39 86 72 69 80 97
58 59 59 59 55 54 55 60 61 57 50 45 50 53 57 48 50 58 70 60 50 32 20 7 7 3 19 17 12 38 28 37 27 28 17 12 26 16 19 40 28 23 36 26 37 35 43 70 68 81 78 65 82 90
54 58 57 56 55 54 54 55 46 40 40 43 43 43 43 46 45 67 53 41 45 47 7 9 8 9 11 5 7 10 20 4 17 7 13 11 6 10 8 6 15 23 25 41 57 55 46 50 78 88 75 74 66 84
53 57 56 51 52 50 53 47 41 40 38 36 34 15 13 22 40 25 17 15 17 15 11 3 5 3 8 20 7 5 14 6 5 9 13 8 21 16 13 10 14 27 29 34 49 49 64 73 66 89 87 81 73 81
51 53 52 52 53 52 53 46 39 34 26 19 9 11 11 12 21 18 13 11 13 5 13 17 27 10 20 7 9 15 6 6 7 10 10 7 8 7 11 12 28 38 43 45 44 52 57 66 77 86 99 81 82 82
51 51 49 52 53 51 50 46 37 34 22 16 11 9 9 12 15 9 8 4 5 11 9 6 5 12 7 14 5 9 7 3 10 5 7 6 1 13 21 47 54 53 62 68 58 70 72 66 72 81 90 96 90 92
47 49 51 51 50 50 51 50 38 33 30 19 10 9 11 10 8 6 9 5 4 5 9 6 3 10 11 13 5 5 8 8 2 4 9 6 11 23 52 62 69 70 68 72 78 74 77 78 72 73 85 84 88 89
52 53 52 49 49 47 47 42 41 36 18 15 14 7 7 6 7 7 5 5 1 5 8 5 5 5 8 4 6 7 9 4 4 5 16 4 21 50 59 62 71 80 77 77 77 76 74 74 79 76 78 78 79 80
49 48 45 45 43 49 46 41 42 36 19 11 9 8 9 4 9 8 6 6 8 8 6 5 7 5 4 7 6 5 5 9 12 11 4 20 50 58 62 64 67 74 76 74 75 75 76 76 75 76 75 74 60 60
27 30 40 38 31 38 45 52 46 28 13 10 8 5 3 4 1 7 10 8 9 6 5 5 6 6 9 6 8 13 6 12 3 3 26 46 53 59 64 70 72 72 72 76 74 76 75 75 74 72 69 55 50 52
18 33 30 35 35 44 58 44 21 11 11 9 3 3 9 11 7 5 4 4 10 5 2 3 8 13 4 6 7 6 5 3 12 35 40 48 57 68 69 71 74 74 75 74 73 71 72 67 61 60 59 53 41 36
30 31 36 38 65 56 38 14 12 10 6 7 3 5 9 9 9 6 4 7 3 2 4 2 6 6 6 6 2 3 9 32 32 36 52 60 59 59 62 67 67 67 69 66 60 65 58 58 55 54 51 42 33 27
27 13 31 37 47 27 10 8 8 7 9 10 14 11 9 11 10 5 2 2 3 3 1 3 4 3 1 1 2 20 28 29 43 49 57 53 52 57 60 57 60 59 55 49 55 53 53 43 42 41 39 36 36 34
38 39 34 26 35 12 9 9 9 14 6 7 11 11 10 7 7 12 13 8 6 4 5 4 3 2 4 17 27 33 36 38 42 43 53 58 55 57 52 56 57 49 43 46 47 44 49 46 42 37 36 35 39 40
22 28 25 24 16 14 12 9 12 10 13 13 16 5 8 7 5 5 7 10 8 6 3 1 4 12 19 21 17 22 27 30 37 37 45 54 52 45 49 53 46 40 42 46 49 45 45 46 39 38 38 37 35 38
12 20 17 13 10 9 14 14 13 9 9 15 9 7 7 2 2 4 7 10 5 1 2 6 14 20 18 15 16 19 24 26 22 25 26 28 37 43 48 52 48 48 47 48 47 43 40 38 36 37 40 43 43 45
22 15 10 9 9 13 7 9 7 7 6 4 10 5 3 3 2 5 4 2 2 4 9 10 11 9 11 14 15 18 19 19 25 28 26 24 24 31 40 50 51 52 54 53 48 46 45 42 44 46 46 50 54 57
18 10 14 13 18 5 6 11 8 6 6 4 4 4 2 1 1 0 2 4 3 6 5 6 7 8 9 13 17 21 23 24 30 33 33 32 34 37 42 50 55 55 54 53 54 54 52 52 50 51 52 53 55 56
8 20 14 11 14 8 9 7 8 6 5 5 3 4 1 4 1 1 3 4 4 2 1 4 6 7 8 10 11 14 18 21 26 32 34 35 33 35 40 44 50 53 53 57 61 57 54 52 51 50 50 50 49 47
15 15 10 6 8 7 5 5 5 2 4 3 3 3 3 0 1 6 5 11 10 8 7 8 9 9 11 11 11 11 12 12 14 18 25 32 37 38 38 41 43 44 47 48 48 48 46 45 44 44 44 44 43 41
9 6 10 11 6 6 8 6 2 3 3 2 3 5 1 1 6 5 7 13 12 12 10 9 9 10 10 11 13 15 17 17 16 14 16 19 23 31 32 34 36 36 35 33 32 33 34 35 36 36 35 34 34 35
8 6 6 6 8 6 6 3 3 3 3 1 3 1 5 10 6 5 10 15 15 14 12 8 4 3 6 10 13 14 14 18 13 13 11 12 14 21 23 25 26 27 27 28 27 25 24 23 22 22 21 22 23 22
9 5 3 6 4 4 3 6 6 3 2 5 5 4 5 7 7 6 12 18 18 17 14 8 4 3 7 13 15 16 14 13 15 13 12 15 18 22 23 24 24 24 24 23 24 26 25 23 21 19 18 17 16 15
6 6 5 3 5 2 4 5 4 4 6 9 7 8 9 10 7 11 16 21 22 20 16 14 11 9 10 14 13 13 13 12 16 18 20 21 23 23 25 26 27 28 28 27 25 23 23 22 22 22 21 20 20 19
5 2 2 2 5 5 3 8 11 11 9 8 14 11 11 11 9 14 21 21 23 25 24 20 17 15 13 11 13 14 14 14 16 16 16 18 20 23 26 28 32 34 35 35 34 32 29 27 26 25 24 24 24 24
4 3 4 2 4 2 4 8 3 4 5 5 5 7 6 7 8 5 7 22 32 31 25 23 23 15 16 18 16 16 17 19 21 24 26 28 29 30 33 35 37 41 42 41 40 39 37 35 33 33 33 32 32 32
2 1 2 3 2 2 7 13 4 6 5 4 4 4 4 6 9 4 4 5 9 13 17 20 21 23 24 23 23 24 27 29 30 30 31 33 37 39 43 44 44 45 45 42 39 37 37 37 38 38 38 39 39 38
Wind_Direction_850mb
281 277 274 276 273 268 266 271 273 275 279 281 273 271 268 272 273 267 265 263 255 257 268 253 256 266 265 267 279 289 322 281 270 252 259 279 290 282 296 297 263 248 233 229 234 238 248 356 316 263 332 325 353 4
281 280 275 266 273 271 269 269 272 275 279 282 279 271 267 266 271 269 267 267 263 254 255 241 251 241 265 255 262 258 242 295 282 311 313 339 314 304 307 280 359 303 6 307 312 332 318 292 307 304 301 312 338 323
285 276 279 266 271 274 273 272 272 277 278 279 276 273 269 266 264 267 268 268 266 262 268 256 257 270 266 249 254 238 254 256 247 261 292 299 276 23 288 284 316 304 297 286 306 325 307 296 305 325 330 334 330 325
280 280 275 270 271 273 273 273 275 276 277 277 274 271 272 272 268 262 263 266 258 259 271 271 272 252 269 267 253 237 244 260 261 266 260 257 257 226 266 282 283 285 312 302 297 290 304 297 312 309 308 308 314 311
278 281 274 267 271 269 267 269 272 274 274 271 268 272 274 272 272 262 259 264 259 242 278 285 285 261 250 260 248 236 245 247 246 252 226 245 254 269 259 270 272 272 275 285 286 294 295 302 316 316 316 318 311 311
277 277 272 273 276 271 270 267 267 270 274 273 274 275 275 271 268 257 255 264 261 247 250 264 268 251 254 249 243 246 246 242 238 232 233 235 240 249 258 259 265 274 276 280 301 318 311 302 304 306 315 310 310 303
270 273 276 269 269 273 270 271 271 269 269 266 273 276 275 270 251 234 219 221 239 234 230 228 229 249 249 246 244 246 242 233 230 237 231 242 255 257 262 270 275 280 301 312 341 338 318 320 311 308 312 305 304 303
266 273 270 269 267 271 276 273 274 264 259 266 273 275 274 263 254 244 242 245 250 247 243 255 258 235 214 196 207 223 214 221 224 222 234 241 263 252 264 267 299 349 331 321 339 332 303 302 308 307 312 316 315 311
262 269 268 269 269 270 274 281 262 253 259 267 273 281 278 260 239 240 246 249 240 231 241 208 190 253 192 243 260 241 230 225 229 199 235 241 232 238 213 305 342 352 342 314 316 317 317 306 309 309 311 312 310 304
264 268 266 266 264 265 272 273 264 253 256 268 273 271 246 236 237 220 203 200 206 223 256 297 90 234 174 221 206 209 202 209 219 233 243 195 243 257 89 58 344 332 328 327 326 325 321 312 310 306 306 306 303 299
265 265 264 265 265 260 265 267 254 248 246 250 225 233 300 191 177 185 185 177 188 223 218 228 220 220 220 181 207 213 202 217 202 243 165 245 254 109 68 2 333 324 320 315 306 296 297 294 299 302 303 303 301 299
264 264 264 263 264 257 260 251 239 222 223 223 224 258 221 210 207 217 189 104 179 213 217 172 210 199 220 208 141 216 194 196 238 211 107 251 111 66 351 337 332 327 323 321 316 308 308 301 299 297 297 299 299 300
265 264 261 261 256 256 251 242 216 214 218 222 214 208 196 211 231 235 182 216 227 203 222 197 251 196 185 205 224 226 230 234 65 92 221 236 82 356 341 336 330 328 324 318 317 315 311 305 302 298 297 297 297 297
263 260 258 256 255 250 238 227 206 202 182 184 190 242 216 207 219 199 168 149 87 1 23 331 260 208 233 207 249 233 237 49 284 227 244 61 359 334 333 331 328 325 324 319 317 315 309 307 306 305 302 302 303 303
260 251 247 247 256 247 225 201 194 187 176 181 173 221 215 229 68 67 67 103 29 24 1 301 278 238 243 245 212 236 252 230 206 238 35 340 328 328 324 325 322 322 321 316 316 312 311 311 311 309 312 313 317 313
244 244 236 249 264 232 195 175 168 166 161 160 203 244 102 42 144 83 45 81 6 340 295 250 267 226 230 218 226 215 203 218 273 339 319 321 321 321 321 325 324 323 318 317 317 316 315 317 315 314 320 325 324 320
241 251 258 264 228 196 176 154 149 152 173 165 150 106 92 79 84 92 60 347 335 340 248 298 237 229 344 234 227 35 214 238 322 315 318 319 318 324 330 330 328 326 324 322 322 327 322 322 330 333 332 340 339 336
255 276 270 240 171 140 128 124 139 137 127 74 125 89 97 108 108 76 56 337 46 34 340 285 318 248 250 249 331 339 342 316 317 313 317 323 330 332 331 330 330 332 324 327 337 331 332 342 342 342 347 354 358 10
263 285 130 135 148 121 101 123 137 101 79 100 107 105 102 90 76 76 94 27 91 160 304 300 245 245 287 39 295 323 321 320 315 318 321 331 334 334 336 338 338 328 334 343 342 343 351 355 353 358 6 18 26 34
152 139 136 148 150 104 98 69 93 96 98 115 105 100 102 99 103 60 50 71 84 67 52 47 82 57 317 303 312 307 312 320 322 320 322 335 344 342 348 347 333 341 350 356 353 3 3 8 16 20 29 40 50 50
129 126 133 152 105 75 90 86 67 83 113 95 115 90 93 94 72 57 34 53 65 37 85 138 275 315 311 316 320 318 324 327 317 313 310 315 340 350 355 347 358 7 9 0 3 11 17 16 23 36 45 53 63 72
129 140 116 96 79 74 77 60 88 93 82 121 106 98 96 60 76 26 59 54 65 76 319 312 329 331 345 355 355 349 334 333 341 340 336 344 355 6 4 2 16 20 25 21 16 22 29 34 41 53 62 68 74 79
133 127 88 71 88 54 27 78 80 47 101 142 148 79 34 70 57 82 87 88 167 329 328 335 350 3 18 27 23 18 14 25 29 22 23 27 30 35 32 31 32 32 37 39 40 43 47 53 61 66 72 78 82 85
112 63 40 45 40 58 40 34 49 63 56 68 78 93 25 64 167 247 121 190 234 318 344 5 34 69 64 47 42 41 43 50 54 48 46 47 49 49 50 45 43 45 47 49 51 52 55 59 63 68 73 77 80 82
96 12 23 23 25 40 46 24 356 49 74 4 94 132 11 326 157 29 223 216 209 254 47 92 78 67 60 58 52 43 36 38 43 41 39 40 43 50 53 50 46 42 45 50 48 49 51 54 58 62 66 70 73 75
69 9 48 359 9 72 359 76 41 58 2 76 52 355 323 286 105 243 226 186 189 185 152 128 113 94 60 42 31 21 9 3 6 14 17 23 27 27 25 27 32 36 38 38 43 43 46 49 53 57 62 64 66 68
76 357 36 44 81 97 67 58 65 69 69 105 331 337 311 204 244 250 189 183 178 163 147 130 111 89 65 46 32 21 14 3 354 341 344 356 5 12 15 16 18 19 22 21 24 31 34 36 40 43 46 49 53 55
92 53 102 359 62 57 119 61 85 162 224 166 41 252 195 198 239 195 198 184 179 172 167 156 123 44 15 5 358 355 357 0 352 357 359 3 6 10 13 11 8 7 4 5 9 11 13 15 16 20 24 31 35 38
56 54 84 27 42 59 143 154 204 177 204 190 154 259 262 252 256 231 203 192 192 198 198 199 213 296 343 341 342 347 346 356 10 15 17 16 12 6 5 2 3 3 5 5 1 1 1 2 2 358 356 355 354 352
23 20 86 63 95 257 209 197 208 216 231 225 254 273 269 267 273 225 211 209 212 213 219 231 245 273 313 333 346 348 351 350 355 356 357 359 359 1 1 3 4 3 359 357 356 354 350 349 347 348 347 347 346 343
360 7 66 188 201 185 219 272 274 249 242 242 239 246 268 295 284 240 228 222 223 229 234 239 246 262 283 307 325 338 346 342 340 339 338 338 339 341 342 344 344 347 348 347 345 343 342 338 335 334 331 332 331 329
14 44 127 47 285 250 308 342 267 257 238 246 242 249 278 282 274 242 235 225 229 236 239 241 247 260 272 282 290 306 318 325 326 322 321 323 326 328 328 330 330 330 332 333 333 332 329 327 327 327 326 325 322 319
331 14 34 340 13 7 346 343 4 335 245 261 249 269 263 267 250 263 296 287 262 249 242 243 250 254 266 281 286 290 298 304 307 309 311 314 317 317 315 316 316 317 319 322 325 326 327 325 325 323 319 316 313 311